Andalusia, AL

3:35 AM CDT on March 26, 2017 (GMT -0500)
Andalusia

Weather History for K79J - February, 2014

Change the Weather History Date:

Thursday, February 6, 2014

  Actual Average (KCEW) Record (KCEW)
Temperature  
Mean Temperature 38 °F -  
Max Temperature 42 °F 57 °F 77 °F (1999)
Min Temperature 34 °F 39 °F 19 °F (2000)
Degree Days  
Heating Degree Days 26    
Moisture  
Dew Point 28 °F    
Average Humidity 66    
Maximum Humidity 83    
Minimum Humidity 51    
Precipitation  
Precipitation 0.04 in - - ()
Sea Level Pressure  
Sea Level Pressure 30.29 in    
Wind  
Wind Speed 9 mph (NNE)    
Max Wind Speed 14 mph    
Max Gust Speed 21 mph    
Visibility 9 miles    
Events Rain    
Averages and records for this station are not official NWS values.
T = Trace of Precipitation, MM = Missing Value Source: NWS Daily Summary

Daily Weather History Graph

Daily Weather History Graph

Search for Another Location

Airport or City:

Trip Planner

Search our weather history database for the weather conditions in past years. The results will help you decide how hot, cold, wet, or windy it might be!

Date:

Astronomy

Feb. 06, 2014 Rise Set
Actual Time 6:34 AM CST 5:25 PM CST
Civil Twilight 6:09 AM CST 5:50 PM CST
Nautical Twilight 5:40 AM CST 6:19 PM CST
Astronomical Twilight 5:12 AM CST 6:47 PM CST
Moon 10:57 AM CST (2/6) No Moon Set
Length of Visible Light 11h 41m
Length of Day
10h 50m
Waxing Crescent, 49% of the Moon is Illuminated
Feb 6
Waxing Crescent
Feb 6
First Quarter
Feb 14
Full
Feb 22
Last Quarter
Mar 1
New

Hourly Weather History & Observations

Time (CST) Temp. Windchill Dew Point Humidity Pressure Visibility Wind Dir Wind Speed Gust Speed Precip Events Conditions
12:56 AM 39.0 °F 34.0 °F 28.9 °F 67% 30.25 in 10.0 mi North 6.9 mph - N/A   Clear
1:56 AM 37.9 °F 33.5 °F 28.0 °F 68% 30.25 in 10.0 mi NNE 5.8 mph - N/A   Clear
2:56 AM 37.0 °F 28.5 °F 27.0 °F 67% 30.23 in 10.0 mi NNE 13.8 mph 19.6 mph N/A   Clear
3:56 AM 36.0 °F 28.5 °F 27.0 °F 70% 30.26 in 10.0 mi NNE 10.4 mph - N/A   Clear
4:56 AM 36.0 °F 28.5 °F 26.1 °F 67% 30.27 in 10.0 mi NNE 10.4 mph 18.4 mph N/A   Overcast
5:56 AM 36.0 °F 28.5 °F 26.1 °F 67% 30.28 in 10.0 mi NNE 10.4 mph 17.3 mph N/A   Overcast
6:56 AM 36.0 °F 29.0 °F 25.0 °F 64% 30.31 in 10.0 mi NE 9.2 mph 17.3 mph N/A   Mostly Cloudy
7:56 AM 37.0 °F 29.3 °F 25.0 °F 62% 30.32 in 10.0 mi North 11.5 mph - N/A   Scattered Clouds
8:56 AM 37.9 °F 30.5 °F 25.0 °F 60% 30.33 in 10.0 mi North 11.5 mph - N/A   Scattered Clouds
9:56 AM 39.0 °F 32.3 °F 25.0 °F 57% 30.32 in 10.0 mi NNE 10.4 mph - N/A   Overcast
10:56 AM 39.0 °F 31.8 °F 25.0 °F 57% 30.31 in 10.0 mi NNE 11.5 mph - N/A   Overcast
11:56 AM 41.0 °F 33.9 °F 25.0 °F 53% 30.30 in 10.0 mi NNE 12.7 mph - N/A   Mostly Cloudy
12:56 PM 41.0 °F 35.2 °F 25.0 °F 53% 30.25 in 10.0 mi ENE 9.2 mph - N/A   Overcast
1:56 PM 42.1 °F 36.6 °F 25.0 °F 51% 30.27 in 10.0 mi NNE 9.2 mph - 0.00 in Rain Light Rain
2:56 PM 41.0 °F 33.5 °F 25.0 °F 53% 30.28 in 10.0 mi North 13.8 mph 20.7 mph 0.00 in   Overcast
3:56 PM 42.1 °F 36.1 °F 26.1 °F 53% 30.31 in 10.0 mi North 10.4 mph - N/A   Overcast
4:56 PM 42.1 °F 37.7 °F 28.0 °F 58% 30.30 in 10.0 mi NE 6.9 mph - 0.00 in Rain Light Rain
5:56 PM 39.9 °F 35.8 °F 33.1 °F 77% 30.31 in 8.0 mi North 5.8 mph - 0.03 in Rain Light Rain
6:56 PM 39.0 °F 35.7 °F 33.1 °F 79% 30.31 in 8.0 mi NNE 4.6 mph - 0.01 in   Overcast
7:56 PM 37.9 °F 34.4 °F 33.1 °F 83% 30.33 in 7.0 mi NNE 4.6 mph - 0.00 in Rain Light Rain
8:56 PM 37.0 °F 32.4 °F 32.0 °F 82% 30.34 in 5.0 mi North 5.8 mph - 0.00 in   Haze
9:56 PM 36.0 °F 32.1 °F 30.9 °F 82% 30.31 in 6.0 mi NE 4.6 mph - N/A   Haze
10:56 PM 35.1 °F - 30.0 °F 82% 30.29 in 5.0 mi Calm Calm - N/A   Haze
11:56 PM 34.0 °F 31.0 °F 28.9 °F 82% 30.29 in 4.0 mi North 3.5 mph - N/A   Haze